Preview of NWS' New Version of Forecast
This preview is not operational and should not be used for support decisions.

Regional Weather Roundup (RWR)

Issued by National Weather Service (NWS)

                            
000
ASCA42 TJSJ 211110
RWRPR 
PUERTO RICO/U.S. VIRGIN ISLANDS HOURLY WEATHER ROUNDUP
NATIONAL WEATHER SERVICE SAN JUAN PR
700 AM AST WED AUG 21 2019

PRZ001>002-007>008-010-211200-
PUERTO RICO
  
CITY           SKY/WX    TMP DP  RH WIND       PRES   REMARKS
SAN JUAN LMM   MOSUNNY   81  75  83 CALM      30.02R                  
AGUADILLA      SUNNY     75  73  94 SE3       30.05                   
CEIBA          MOSUNNY   82  75  78 NE7       30.03R                  
$$

VIZ001>002-211200-
U.S. VIRGIN ISLANDS
  
CITY           SKY/WX    TMP DP  RH WIND       PRES   REMARKS
CHARLOTTE AMA  SUNNY     81  75  83 E6        30.02R                  
$$

HOURLY WEATHER ROUNDUP FOR THE NEWS MEDIA
  
CITY           SKY/WX    TMP DP  RH WIND       PRES   REMARKS
ORLANDO        FAIR      77  75  93 E5        30.09R                  
NEW YORK       MOCLDY    75  75 100 S5        29.99R FOG              
NEWARK         CLOUDY    77  74  90 S5        29.97R                  
CHICAGO        FAIR      65  63  93 CALM      29.92F                  
HARTFORD       FAIR      67  65  93 CALM      30.01  FOG              
BOSTON         PTSUNNY   72  63  73 S6        30.00S                  
DALLAS         CLEAR     83  70  64 S3        29.97S                  
PHILADELPHIA   MOCLDY    76  70  82 S7        29.99R                  
LOS ANGELES    PTCLDY    68  61  78 CALM      29.85S                  
WASHINGTON DC  MOCLDY    70  67  90 S6        29.99R